Weather History for Middletown, OH

Change the Weather History Date:

Saturday, November 24, 2012

  Actual Average (KDAY) Record (KDAY)
Temperature  
Mean Temperature 30 °F 39 °F  
Max Temperature 32 °F 47 °F 68 °F (1931)
Min Temperature 25 °F 32 °F 3 °F (1950)
Degree Days  
Heating Degree Days 36 26  
Month to date heating degree days 499  
Since 1 July heating degree days 946  
Cooling Degree Days 0 0  
Month to date cooling degree days 0  
Year to date cooling degree days 891  
Moisture  
Dew Point 24 °F    
Average Humidity 76    
Maximum Humidity 87    
Minimum Humidity 68    
Precipitation  
Precipitation 0.00 in 0.12 in 1.23 in (1900)
Month to date precipitation 2.71  
Year to date precipitation 37.25  
Snow  
Snow 0.00 in 0.10 in 0.70 in (1971)
Month to date snowfall 0.4  
Since 1 July snowfall 0.8  
Since 1 September snowfall 0.8  
Snow Depth -    
Sea Level Pressure  
Sea Level Pressure 30.20 in    
Wind  
Wind Speed 8 mph (West)    
Max Wind Speed 13 mph    
Max Gust Speed 18 mph    
Visibility 10 miles    
Events      
T = Trace of Precipitation, MM = Missing Value Source: NWS Daily Summary

Daily Weather History Graph

Daily Weather History Graph

Search for Another Location

Airport:

Trip Planner

Search our weather history database for the weather conditions in past years. The results will help you decide how hot, cold, wet, or windy it might be!

Date:

Astronomy

Nov. 24, 2012 Rise Set
Actual Time 7:32 AM EST 5:16 PM EST
Civil Twilight 7:02 AM EST 5:45 PM EST
Nautical Twilight 6:29 AM EST 6:18 PM EST
Astronomical Twilight 5:57 AM EST 6:51 PM EST
Moon 3:00 PM EST (11/24) 3:48 AM EST (11/24)
Length of Visible Light 10h 43m
Length of Day
9h 44m
Waxing Gibbous, 87% of the Moon is Illuminated
Nov 24
Waxing Gibbous
Nov 28
Full
Dec 6
Last Quarter
Dec 13
New
Dec 20
First Quarter

Hourly Weather History & Observations

Time (EST) Temp. Windchill Dew Point Humidity Pressure Visibility Wind Dir Wind Speed Gust Speed Precip Events Conditions
12:15 AM 32.5 °F 24.8 °F 24.6 °F 73% 30.19 in 10.0 mi WNW 9.2 mph - N/A   Overcast
12:35 AM 32.5 °F 28.1 °F 24.8 °F 73% 30.19 in 10.0 mi WNW 4.6 mph - N/A   Overcast
12:55 AM 32.5 °F 25.5 °F 25.0 °F 74% 30.19 in 10.0 mi West 8.1 mph - N/A   Overcast
1:15 AM 32.5 °F 26.2 °F 25.3 °F 75% 30.18 in 10.0 mi West 6.9 mph - N/A   Overcast
1:35 AM 32.5 °F 26.2 °F 25.0 °F 74% 30.18 in 10.0 mi West 6.9 mph - N/A   Overcast
1:55 AM 32.5 °F 25.5 °F 26.1 °F 77% 30.19 in 10.0 mi West 8.1 mph - N/A   Overcast
2:15 AM 32.5 °F 25.5 °F 26.2 °F 78% 30.18 in 10.0 mi West 8.1 mph - N/A   Overcast
2:35 AM 30.2 °F 22.6 °F 23.9 °F 77% 30.18 in 10.0 mi West 8.1 mph - N/A   Overcast
2:55 AM 30.2 °F 23.4 °F 23.9 °F 77% 30.19 in 10.0 mi West 6.9 mph - N/A   Overcast
3:15 AM 30.2 °F 21.9 °F 23.9 °F 77% 30.19 in 10.0 mi West 9.2 mph - N/A   Overcast
3:35 AM 30.2 °F 20.8 °F 24.1 °F 78% 30.19 in 10.0 mi West 11.5 mph - N/A   Overcast
3:55 AM 30.2 °F 20.8 °F 23.9 °F 77% 30.19 in 10.0 mi West 11.5 mph - N/A   Overcast
4:15 AM 30.2 °F 21.9 °F 23.9 °F 77% 30.19 in 10.0 mi West 9.2 mph - N/A   Overcast
4:55 AM 30.2 °F 22.6 °F 24.1 °F 78% 30.19 in 10.0 mi West 8.1 mph - N/A   Overcast
5:15 AM 30.2 °F 22.6 °F 23.7 °F 77% 30.19 in 10.0 mi West 8.1 mph - N/A   Overcast
5:35 AM 30.2 °F 23.4 °F 23.9 °F 77% 30.19 in 10.0 mi West 6.9 mph - N/A   Overcast
5:55 AM 30.2 °F 22.6 °F 24.1 °F 78% 30.20 in 10.0 mi West 8.1 mph - N/A   Overcast
6:15 AM 30.2 °F 22.6 °F 24.3 °F 79% 30.20 in 10.0 mi West 8.1 mph - N/A   Overcast
6:35 AM 30.2 °F 24.3 °F 24.1 °F 78% 30.20 in 10.0 mi West 5.8 mph - N/A   Overcast
6:55 AM 30.2 °F 22.6 °F 24.3 °F 79% 30.20 in 10.0 mi West 8.1 mph - N/A   Overcast
7:15 AM 30.2 °F 22.6 °F 24.3 °F 79% 30.20 in 10.0 mi West 8.1 mph - N/A   Overcast
7:35 AM 30.2 °F 21.3 °F 24.4 °F 79% 30.20 in 10.0 mi West 10.4 mph - N/A   Overcast
7:55 AM 30.2 °F 21.9 °F 24.3 °F 79% 30.21 in 10.0 mi West 9.2 mph - N/A   Overcast
8:15 AM 30.2 °F 21.9 °F 24.4 °F 79% 30.21 in 10.0 mi West 9.2 mph - N/A   Overcast
8:35 AM 30.2 °F 21.3 °F 24.3 °F 79% 30.22 in 10.0 mi West 10.4 mph - N/A   Overcast
8:55 AM 30.2 °F 20.8 °F 24.3 °F 79% 30.22 in 10.0 mi West 11.5 mph - N/A   Overcast
9:15 AM 30.2 °F 21.3 °F 23.9 °F 77% 30.22 in 10.0 mi West 10.4 mph - N/A   Overcast
9:35 AM 30.2 °F 20.2 °F 23.9 °F 77% 30.23 in 10.0 mi West 12.7 mph - N/A   Overcast
9:55 AM 30.6 °F 21.8 °F 24.1 °F 77% 30.23 in 10.0 mi West 10.4 mph - N/A   Overcast
10:15 AM 32.5 °F 23.7 °F 26.4 °F 78% 30.23 in 10.0 mi West 11.5 mph 16.1 mph N/A   Overcast
10:35 AM 32.5 °F 24.8 °F 26.4 °F 78% 30.24 in 10.0 mi West 9.2 mph - N/A   Overcast
10:55 AM 32.5 °F 24.2 °F 26.4 °F 78% 30.24 in 10.0 mi West 10.4 mph - N/A   Overcast
11:15 AM 32.5 °F 24.2 °F 26.4 °F 78% 30.24 in 10.0 mi WNW 10.4 mph - N/A   Overcast
11:35 AM 32.5 °F 25.5 °F 25.9 °F 76% 30.23 in 10.0 mi WNW 8.1 mph - N/A   Overcast
11:55 AM 32.5 °F 24.2 °F 25.9 °F 76% 30.23 in 10.0 mi West 10.4 mph - N/A   Overcast
12:15 PM 32.5 °F 23.2 °F 25.7 °F 76% 30.22 in 10.0 mi West 12.7 mph 18.4 mph N/A   Overcast
12:35 PM 32.5 °F 23.7 °F 25.5 °F 75% 30.22 in 10.0 mi West 11.5 mph - N/A   Overcast
12:55 PM 32.5 °F 23.2 °F 25.2 °F 74% 30.22 in 10.0 mi WNW 12.7 mph - N/A   Overcast
1:15 PM 32.5 °F 24.2 °F 25.2 °F 74% 30.21 in 10.0 mi WNW 10.4 mph - N/A   Overcast
1:35 PM 32.7 °F 23.4 °F 25.2 °F 74% 30.20 in 10.0 mi West 12.7 mph 16.1 mph N/A   Overcast
1:55 PM 32.5 °F 23.7 °F 24.6 °F 73% 30.20 in 10.0 mi West 11.5 mph - N/A   Overcast
2:15 PM 32.7 °F 23.9 °F 24.8 °F 73% 30.20 in 10.0 mi WNW 11.5 mph - N/A   Overcast
2:35 PM 32.5 °F 24.8 °F 24.8 °F 73% 30.20 in 10.0 mi WNW 9.2 mph - N/A   Overcast
2:55 PM 32.5 °F 24.8 °F 24.6 °F 73% 30.20 in 10.0 mi WNW 9.2 mph - N/A   Overcast
3:15 PM 32.5 °F 24.2 °F 24.6 °F 73% 30.20 in 10.0 mi West 10.4 mph - N/A   Overcast
3:35 PM 32.5 °F 25.5 °F 24.4 °F 72% 30.20 in 10.0 mi West 8.1 mph - N/A   Overcast
3:55 PM 32.5 °F 24.8 °F 23.2 °F 68% 30.20 in 10.0 mi NW 9.2 mph - N/A   Overcast
4:15 PM 32.5 °F 27.1 °F 23.2 °F 68% 30.20 in 10.0 mi WNW 5.8 mph - N/A   Overcast
4:35 PM 32.5 °F 27.1 °F 23.5 °F 69% 30.20 in 10.0 mi NW 5.8 mph - N/A   Overcast
4:55 PM 32.5 °F 26.2 °F 23.5 °F 69% 30.20 in 10.0 mi NW 6.9 mph - N/A   Overcast
5:15 PM 32.5 °F 28.1 °F 23.9 °F 70% 30.20 in 10.0 mi NW 4.6 mph - N/A   Overcast
5:35 PM 32.5 °F 26.2 °F 24.1 °F 71% 30.20 in 10.0 mi NW 6.9 mph - N/A   Overcast
5:55 PM 32.5 °F 28.1 °F 24.1 °F 71% 30.20 in 10.0 mi WNW 4.6 mph - N/A   Overcast
6:15 PM 32.5 °F 28.1 °F 24.6 °F 73% 30.20 in 10.0 mi WNW 4.6 mph - N/A   Overcast
6:35 PM 32.5 °F 27.1 °F 23.9 °F 70% 30.20 in 10.0 mi West 5.8 mph - N/A   Overcast
6:55 PM 32.5 °F 29.3 °F 24.8 °F 73% 30.20 in 10.0 mi West 3.5 mph - N/A   Overcast
7:15 PM 32.5 °F 29.3 °F 24.4 °F 72% 30.19 in 10.0 mi West 3.5 mph - N/A   Overcast
7:35 PM 32.5 °F - 24.4 °F 72% 30.19 in 10.0 mi Calm Calm - N/A   Overcast
7:55 PM 32.5 °F 27.1 °F 24.6 °F 73% 30.18 in 10.0 mi WSW 5.8 mph - N/A   Overcast
8:15 PM 32.5 °F 29.3 °F 24.4 °F 72% 30.19 in 10.0 mi West 3.5 mph - N/A   Overcast
8:35 PM 32.5 °F 28.1 °F 25.7 °F 76% 30.18 in 10.0 mi West 4.6 mph - N/A   Overcast
9:15 PM 32.5 °F 28.1 °F 24.6 °F 73% 30.17 in 10.0 mi WSW 4.6 mph - N/A   Overcast
9:35 PM 30.4 °F 25.6 °F 23.4 °F 75% 30.16 in 10.0 mi SW 4.6 mph - N/A   Overcast
9:55 PM 30.2 °F 25.4 °F 23.7 °F 77% 30.15 in 10.0 mi SW 4.6 mph - N/A   Mostly Cloudy
10:15 PM 29.5 °F 25.9 °F 23.0 °F 77% 30.15 in 10.0 mi SW 3.5 mph - N/A   Scattered Clouds
10:35 PM 28.8 °F 25.0 °F 23.0 °F 79% 30.15 in 10.0 mi WSW 3.5 mph - N/A   Clear
10:55 PM 27.9 °F - 22.8 °F 81% 30.15 in 10.0 mi Calm Calm - N/A   Clear
11:15 PM 27.9 °F - 23.0 °F 82% 30.14 in 10.0 mi Calm Calm - N/A   Clear
11:35 PM 27.9 °F - 23.9 °F 85% 30.14 in 10.0 mi Calm Calm - N/A   Clear
11:55 PM 25.3 °F 21.1 °F 22.1 °F 87% 30.14 in 10.0 mi WSW 3.5 mph - N/A   Clear